Time,TemperatureF,DewpointF,PressureIn,WindDirection,WindDirectionDegrees,WindSpeedMPH,WindSpeedGustMPH,Humidity,HourlyPrecipIn,Conditions,Clouds,dailyrainin,SoftwareType,DateUTC
2013-06-26 00:12:00,72.0,-99.9,-100.00,SSE,164,3.0,19.0,-999,-99.99,,,-99.99,,2013-06-26 04:12:00,
2013-06-26 00:22:00,72.0,-99.9,-100.00,SSE,164,3.0,19.0,-999,-99.99,,,-99.99,,2013-06-26 04:22:00,
2013-06-26 00:33:00,72.0,-99.9,-100.00,SSE,164,3.0,19.0,-999,-99.99,,,-99.99,,2013-06-26 04:33:00,
2013-06-26 00:53:00,72.0,-99.9,-100.00,SE,127,1.0,7.0,-999,-99.99,,,-99.99,,2013-06-26 04:53:00,
2013-06-26 01:02:00,72.0,-99.9,-100.00,SE,127,1.0,7.0,-999,-99.99,,,-99.99,,2013-06-26 05:02:00,
2013-06-26 01:11:00,72.0,-99.9,-100.00,SE,127,1.0,7.0,-999,-99.99,,,-99.99,,2013-06-26 05:11:00,
2013-06-26 01:22:00,72.0,-99.9,-100.00,SE,127,1.0,7.0,-999,-99.99,,,-99.99,,2013-06-26 05:22:00,
2013-06-26 01:34:00,71.0,-99.9,-100.00,SSE,167,1.0,4.0,-999,-99.99,,,-99.99,,2013-06-26 05:34:00,
2013-06-26 01:52:00,71.0,-99.9,-100.00,SSE,167,1.0,4.0,-999,-99.99,,,-99.99,,2013-06-26 05:52:00,
2013-06-26 02:02:00,71.0,-99.9,-100.00,SSE,167,1.0,4.0,-999,-99.99,,,-99.99,,2013-06-26 06:02:00,
2013-06-26 02:12:00,71.0,-99.9,-100.00,SSE,167,1.0,4.0,-999,-99.99,,,-99.99,,2013-06-26 06:12:00,
2013-06-26 02:22:00,71.0,-99.9,-100.00,SSE,167,1.0,4.0,-999,-99.99,,,-99.99,,2013-06-26 06:22:00,
2013-06-26 02:44:00,70.0,-99.9,-100.00,NNE,19,3.0,8.0,-999,-99.99,,,-99.99,,2013-06-26 06:44:00,
2013-06-26 02:53:00,70.0,-99.9,-100.00,NNE,19,3.0,8.0,-999,-99.99,,,-99.99,,2013-06-26 06:53:00,
2013-06-26 03:02:00,70.0,-99.9,-100.00,NNE,19,3.0,8.0,-999,-99.99,,,-99.99,,2013-06-26 07:02:00,
2013-06-26 03:11:00,70.0,-99.9,-100.00,NNE,19,3.0,8.0,-999,-99.99,,,-99.99,,2013-06-26 07:11:00,
2013-06-26 03:33:00,70.0,-99.9,-100.00,NNE,19,3.0,8.0,-999,-99.99,,,-99.99,,2013-06-26 07:33:00,
2013-06-26 03:43:00,69.0,-99.9,-100.00,NNE,12,2.0,8.0,-999,-99.99,,,-99.99,,2013-06-26 07:43:00,
2013-06-26 03:53:00,69.0,-99.9,-100.00,NNE,12,2.0,8.0,-999,-99.99,,,-99.99,,2013-06-26 07:53:00,
2013-06-26 04:02:00,69.0,-99.9,-100.00,NNE,12,2.0,8.0,-999,-99.99,,,-99.99,,2013-06-26 08:02:00,
2013-06-26 04:22:00,69.0,-99.9,-100.00,NNE,12,2.0,8.0,-999,-99.99,,,-99.99,,2013-06-26 08:22:00,
2013-06-26 04:43:00,69.0,-99.9,-100.00,South,171,2.0,7.0,-999,-99.99,,,-99.99,,2013-06-26 08:43:00,
2013-06-26 04:53:00,69.0,-99.9,-100.00,South,171,2.0,7.0,-999,-99.99,,,-99.99,,2013-06-26 08:53:00,
2013-06-26 05:01:00,69.0,-99.9,-100.00,South,171,2.0,7.0,-999,-99.99,,,-99.99,,2013-06-26 09:01:00,
2013-06-26 05:11:00,69.0,-99.9,-100.00,South,171,2.0,7.0,-999,-99.99,,,-99.99,,2013-06-26 09:11:00,
2013-06-26 05:23:00,69.0,-99.9,-100.00,South,171,2.0,7.0,-999,-99.99,,,-99.99,,2013-06-26 09:23:00,
2013-06-26 05:33:00,69.0,-99.9,-100.00,South,171,2.0,7.0,-999,-99.99,,,-99.99,,2013-06-26 09:33:00,
2013-06-26 05:43:00,69.0,-99.9,-100.00,SSE,166,5.0,11.0,-999,-99.99,,,-99.99,,2013-06-26 09:43:00,
2013-06-26 05:53:00,69.0,-99.9,-100.00,SSE,166,5.0,11.0,-999,-99.99,,,-99.99,,2013-06-26 09:53:00,
2013-06-26 06:01:00,69.0,-99.9,-100.00,SSE,166,5.0,11.0,-999,-99.99,,,-99.99,,2013-06-26 10:01:00,
2013-06-26 06:53:00,70.0,-99.9,-100.00,SE,142,5.0,13.0,-999,-99.99,,,-99.99,,2013-06-26 10:53:00,
2013-06-26 07:02:00,70.0,-99.9,-100.00,SE,142,5.0,13.0,-999,-99.99,,,-99.99,,2013-06-26 11:02:00,
2013-06-26 07:12:00,70.0,-99.9,-100.00,SE,142,5.0,13.0,-999,-99.99,,,-99.99,,2013-06-26 11:12:00,
2013-06-26 07:44:00,71.0,-99.9,-100.00,SSE,165,6.0,14.0,-999,-99.99,,,-99.99,,2013-06-26 11:44:00,
2013-06-26 07:52:00,71.0,-99.9,-100.00,SSE,165,6.0,14.0,-999,-99.99,,,-99.99,,2013-06-26 11:52:00,
2013-06-26 08:02:00,71.0,-99.9,-100.00,SSE,165,6.0,14.0,-999,-99.99,,,-99.99,,2013-06-26 12:02:00,
2013-06-26 08:22:00,71.0,-99.9,-100.00,SSE,165,6.0,14.0,-999,-99.99,,,-99.99,,2013-06-26 12:22:00,
2013-06-26 08:34:00,71.0,-99.9,-100.00,SSE,165,6.0,14.0,-999,-99.99,,,-99.99,,2013-06-26 12:34:00,
2013-06-26 08:43:00,68.0,-99.9,-100.00,SSW,192,15.0,24.0,-999,-99.99,,,-99.99,,2013-06-26 12:43:00,
2013-06-26 08:50:00,68.0,-99.9,-100.00,SSW,192,15.0,24.0,-999,-99.99,,,-99.99,,2013-06-26 12:50:00,
2013-06-26 08:52:00,68.0,-99.9,-100.00,SSW,192,15.0,24.0,-999,-99.99,,,-99.99,,2013-06-26 12:52:00,
2013-06-26 09:02:00,68.0,-99.9,-100.00,SSW,192,15.0,24.0,-999,-99.99,,,-99.99,,2013-06-26 13:02:00,
2013-06-26 09:11:00,68.0,-99.9,-100.00,SSW,192,15.0,24.0,-999,-99.99,,,-99.99,,2013-06-26 13:11:00,
2013-06-26 09:23:00,68.0,-99.9,-100.00,SSW,192,15.0,24.0,-999,-99.99,,,-99.99,,2013-06-26 13:23:00,
2013-06-26 09:34:00,68.0,-99.9,-100.00,SSW,192,15.0,24.0,-999,-99.99,,,-99.99,,2013-06-26 13:34:00,
2013-06-26 09:43:00,68.0,-99.9,-100.00,SSW,192,15.0,24.0,-999,-99.99,,,-99.99,,2013-06-26 13:43:00,
2013-06-26 10:12:00,68.0,-99.9,-100.00,South,187,16.0,24.0,-999,-99.99,,,-99.99,,2013-06-26 14:12:00,
2013-06-26 10:20:00,67.0,-99.9,-100.00,SSE,167,7.0,21.0,-999,-99.99,,,-99.99,,2013-06-26 14:20:00,
2013-06-26 10:24:00,68.0,-99.9,-100.00,South,187,16.0,24.0,-999,-99.99,,,-99.99,,2013-06-26 14:24:00,
2013-06-26 10:34:00,68.0,-99.9,-100.00,South,187,16.0,24.0,-999,-99.99,,,-99.99,,2013-06-26 14:34:00,
2013-06-26 10:42:00,67.0,-99.9,-100.00,SSE,167,7.0,21.0,-999,-99.99,,,-99.99,,2013-06-26 14:42:00,
2013-06-26 10:53:00,67.0,-99.9,-100.00,SSE,167,7.0,21.0,-999,-99.99,,,-99.99,,2013-06-26 14:53:00,
2013-06-26 11:02:00,67.0,-99.9,-100.00,SSE,167,7.0,21.0,-999,-99.99,,,-99.99,,2013-06-26 15:02:00,
2013-06-26 11:12:00,67.0,-99.9,-100.00,SSE,167,7.0,21.0,-999,-99.99,,,-99.99,,2013-06-26 15:12:00,
2013-06-26 11:34:00,67.0,-99.9,-100.00,SSE,167,7.0,21.0,-999,-99.99,,,-99.99,,2013-06-26 15:34:00,
2013-06-26 11:44:00,67.0,-99.9,-100.00,SSE,167,7.0,21.0,-999,-99.99,,,-99.99,,2013-06-26 15:44:00,
2013-06-26 11:53:00,67.0,-99.9,-100.00,SSE,167,7.0,21.0,-999,-99.99,,,-99.99,,2013-06-26 15:53:00,
2013-06-26 12:12:00,69.0,-99.9,-100.00,South,182,2.0,9.0,-999,-99.99,,,-99.99,,2013-06-26 16:12:00,
2013-06-26 12:34:00,69.0,-99.9,-100.00,South,182,2.0,9.0,-999,-99.99,,,-99.99,,2013-06-26 16:34:00,
2013-06-26 12:52:00,75.0,-99.9,-100.00,South,175,6.0,12.0,-999,-99.99,,,-99.99,,2013-06-26 16:52:00,
2013-06-26 13:02:00,75.0,-99.9,-100.00,South,175,6.0,12.0,-999,-99.99,,,-99.99,,2013-06-26 17:02:00,
2013-06-26 13:11:00,75.0,-99.9,-100.00,South,175,6.0,12.0,-999,-99.99,,,-99.99,,2013-06-26 17:11:00,
2013-06-26 13:24:00,75.0,-99.9,-100.00,South,175,6.0,12.0,-999,-99.99,,,-99.99,,2013-06-26 17:24:00,
2013-06-26 13:33:00,75.0,-99.9,-100.00,South,175,6.0,12.0,-999,-99.99,,,-99.99,,2013-06-26 17:33:00,
2013-06-26 13:43:00,80.0,-99.9,-100.00,South,174,4.0,16.0,-999,-99.99,,,-99.99,,2013-06-26 17:43:00,
2013-06-26 13:52:00,80.0,-99.9,-100.00,South,174,4.0,16.0,-999,-99.99,,,-99.99,,2013-06-26 17:52:00,
2013-06-26 14:22:00,80.0,-99.9,-100.00,South,174,4.0,16.0,-999,-99.99,,,-99.99,,2013-06-26 18:22:00,
2013-06-26 14:34:00,80.0,-99.9,-100.00,South,174,4.0,16.0,-999,-99.99,,,-99.99,,2013-06-26 18:34:00,
2013-06-26 14:43:00,81.0,-99.9,-100.00,South,176,6.0,15.0,-999,-99.99,,,-99.99,,2013-06-26 18:43:00,
2013-06-26 15:02:00,81.0,-99.9,-100.00,South,176,6.0,15.0,-999,-99.99,,,-99.99,,2013-06-26 19:02:00,
2013-06-26 15:12:00,81.0,-99.9,-100.00,South,176,6.0,15.0,-999,-99.99,,,-99.99,,2013-06-26 19:12:00,
2013-06-26 15:33:00,81.0,-99.9,-100.00,South,176,6.0,15.0,-999,-99.99,,,-99.99,,2013-06-26 19:33:00,
2013-06-26 15:52:00,81.0,-99.9,-100.00,South,173,7.0,19.0,-999,-99.99,,,-99.99,,2013-06-26 19:52:00,
2013-06-26 16:02:00,81.0,-99.9,-100.00,South,173,7.0,19.0,-999,-99.99,,,-99.99,,2013-06-26 20:02:00,
2013-06-26 16:12:00,81.0,-99.9,-100.00,South,173,7.0,19.0,-999,-99.99,,,-99.99,,2013-06-26 20:12:00,
2013-06-26 16:22:00,81.0,-99.9,-100.00,South,173,7.0,19.0,-999,-99.99,,,-99.99,,2013-06-26 20:22:00,
2013-06-26 16:34:00,81.0,-99.9,-100.00,South,173,7.0,19.0,-999,-99.99,,,-99.99,,2013-06-26 20:34:00,
2013-06-26 17:12:00,74.0,-99.9,-100.00,West,264,3.0,12.0,-999,-99.99,,,-99.99,,2013-06-26 21:12:00,
2013-06-26 17:23:00,74.0,-99.9,-100.00,West,264,3.0,12.0,-999,-99.99,,,-99.99,,2013-06-26 21:23:00,
2013-06-26 17:33:00,74.0,-99.9,-100.00,West,264,3.0,12.0,-999,-99.99,,,-99.99,,2013-06-26 21:33:00,
2013-06-26 17:43:00,74.0,-99.9,-100.00,West,264,3.0,12.0,-999,-99.99,,,-99.99,,2013-06-26 21:43:00,
2013-06-26 18:01:00,72.0,-99.9,-100.00,North,357,4.0,8.0,-999,-99.99,,,-99.99,,2013-06-26 22:01:00,
2013-06-26 18:11:00,72.0,-99.9,-100.00,North,357,4.0,8.0,-999,-99.99,,,-99.99,,2013-06-26 22:11:00,
2013-06-26 18:22:00,72.0,-99.9,-100.00,North,357,4.0,8.0,-999,-99.99,,,-99.99,,2013-06-26 22:22:00,
2013-06-26 18:34:00,72.0,-99.9,-100.00,North,357,4.0,8.0,-999,-99.99,,,-99.99,,2013-06-26 22:34:00,
2013-06-26 18:52:00,76.0,-99.9,-100.00,NNW,348,4.0,7.0,-999,-99.99,,,-99.99,,2013-06-26 22:52:00,
2013-06-26 19:02:00,76.0,-99.9,-100.00,NNW,348,4.0,7.0,-999,-99.99,,,-99.99,,2013-06-26 23:02:00,
2013-06-26 19:22:00,76.0,-99.9,-100.00,NNW,348,4.0,7.0,-999,-99.99,,,-99.99,,2013-06-26 23:22:00,
2013-06-26 19:34:00,76.0,-99.9,-100.00,NNW,348,4.0,7.0,-999,-99.99,,,-99.99,,2013-06-26 23:34:00,
2013-06-26 19:43:00,75.0,-99.9,-100.00,North,349,4.0,12.0,-999,-99.99,,,-99.99,,2013-06-26 23:43:00,
2013-06-26 19:53:00,75.0,-99.9,-100.00,North,349,4.0,12.0,-999,-99.99,,,-99.99,,2013-06-26 23:53:00,
2013-06-26 20:02:00,75.0,-99.9,-100.00,North,349,4.0,12.0,-999,-99.99,,,-99.99,,2013-06-27 00:02:00,
2013-06-26 20:12:00,75.0,-99.9,-100.00,North,349,4.0,12.0,-999,-99.99,,,-99.99,,2013-06-27 00:12:00,
2013-06-26 20:22:00,75.0,-99.9,-100.00,North,349,4.0,12.0,-999,-99.99,,,-99.99,,2013-06-27 00:22:00,
2013-06-26 20:34:00,75.0,-99.9,-100.00,North,349,4.0,12.0,-999,-99.99,,,-99.99,,2013-06-27 00:34:00,
2013-06-26 20:43:00,75.0,-99.9,-100.00,NNW,336,1.0,6.0,-999,-99.99,,,-99.99,,2013-06-27 00:43:00,
2013-06-26 20:53:00,75.0,-99.9,-100.00,NNW,336,1.0,6.0,-999,-99.99,,,-99.99,,2013-06-27 00:53:00,
2013-06-26 21:01:00,75.0,-99.9,-100.00,NNW,336,1.0,6.0,-999,-99.99,,,-99.99,,2013-06-27 01:01:00,
2013-06-26 21:10:00,74.0,-99.9,-100.00,ENE,65,1.0,6.0,-999,-99.99,,,-99.99,,2013-06-27 01:10:00,
2013-06-26 21:22:00,75.0,-99.9,-100.00,NNW,336,1.0,6.0,-999,-99.99,,,-99.99,,2013-06-27 01:22:00,
2013-06-26 21:43:00,74.0,-99.9,-100.00,ENE,65,1.0,6.0,-999,-99.99,,,-99.99,,2013-06-27 01:43:00,
2013-06-26 21:53:00,74.0,-99.9,-100.00,ENE,65,1.0,6.0,-999,-99.99,,,-99.99,,2013-06-27 01:53:00,
2013-06-26 22:01:00,74.0,-99.9,-100.00,ENE,65,1.0,6.0,-999,-99.99,,,-99.99,,2013-06-27 02:01:00,
2013-06-26 22:22:00,74.0,-99.9,-100.00,ENE,65,1.0,6.0,-999,-99.99,,,-99.99,,2013-06-27 02:22:00,
2013-06-26 22:32:00,74.0,-99.9,-100.00,ENE,65,1.0,6.0,-999,-99.99,,,-99.99,,2013-06-27 02:32:00,
2013-06-26 22:43:00,73.0,-99.9,-100.00,SSE,147,0.0,2.0,-999,-99.99,,,-99.99,,2013-06-27 02:43:00,
2013-06-26 22:52:00,73.0,-99.9,-100.00,SSE,147,0.0,2.0,-999,-99.99,,,-99.99,,2013-06-27 02:52:00,
2013-06-26 23:02:00,73.0,-99.9,-100.00,SSE,147,0.0,2.0,-999,-99.99,,,-99.99,,2013-06-27 03:02:00,
2013-06-26 23:22:00,73.0,-99.9,-100.00,SSE,147,0.0,2.0,-999,-99.99,,,-99.99,,2013-06-27 03:22:00,
2013-06-26 23:42:00,70.0,-99.9,-100.00,WSW,253,0.0,7.0,-999,-99.99,,,-99.99,,2013-06-27 03:42:00,
2013-06-26 23:52:00,70.0,-99.9,-100.00,WSW,253,0.0,7.0,-999,-99.99,,,-99.99,,2013-06-27 03:52:00,